Location: ???????
(38.3360°N, 23.6977°E)
Time: 04:45:45
(UTC+00:00)

Nadezhda 4 Rocket - Pass Details

Date: 17 November 2025
Orbit: 949 x 991 km, 82.9° (Epoch: 09 December)

Event Time Altitude Azimuth Distance (km) Brightness Sun altitude
Rises 16:29:41 0° 357° (N) 3,696 6.9 -15.4°
Reaches altitude 10° 16:32:17 10° 2° (N) 2,739 6.2 -15.9°
Maximum altitude 16:38:27 57° 80° (E) 1,136 4.0 -17.1°
Drops below altitude 10° 16:44:31 10° 159° (SSE) 2,694 6.2 -18.3°
Sets 16:47:02 0° 163° (SSE) 3,630 6.9 -18.8°
